星链-31734 (STARLINK-31734 )

导读

STARLINK-31734是美国太空探索技术公司(SpaceX)星链星座的一员,于2024年4月18日发射入轨,属于Starlink Gen2系列卫星。它承担星链网络低轨道卫星组网任务,为全球提供高速低延迟互联网服务,尤其覆盖偏远、网络基础设施匮乏区域,进一步扩充了星链星座的覆盖与服务容量。

基本信息
目录编号:
59534
目录名称:
STARLINK-31734
国际标识:
2024-074A
轨道中心:
EARTH
卫星名称:
星链-31734
卫星全名:
星链-31734 (STARLINK-31734 )
卫星状态:
在轨 (已飞行791 天)
发射日期:
2024-04-18 UTC
国别 :
美国 (US)
星等 :
--
轨道信息
数据来源 国际轨道数据
星历时间: 2026-06-17T11:56:57+0800
23小时前
查看轨道信息
半长轴: 6861.259km
偏心率: 0.0001553
轨道倾角: 43.008°
近地点辐角 272.975°
升交点赤经 130.851°
平近点角 87.092°
近地点: 482.056km
远地点: 484.188km
周期: 94.268分钟
每日圈数: 15.275557
详细信息
固有亮度:
5
最大亮度:
1.5
卫星平台:
Starlink v2.0 mini
覆盖范围:
全球
运营商:
太空探索技术公司
运营商所在国:
美国
制造商(研发单位):
太空探索技术公司
制造商所在国:
美国
使用方式:
暂无
卫星简介
星链(Starlink)计划是由太空探索技术公司(SpaceX)提出的一个巨型低轨卫星互联网星座项目,计划在2019年至2024年间在太空搭建由约1.2万颗卫星组成的“星链”网络,其中1584颗将部署在地球上空550千米处的近地轨道,并从2020年开始工作。该卫星仍在工作。
2D轨道图
3D轨道图
轨道高度分析图
轨道倾角分析图
轨道综合分析图
查看轨道综合分析图